Regional Weather Roundup
Issued by NWS

Home | Current Version | Previous Version | Text Only | Print | Product List | Glossary On
Versions: 1 2 3 4 5 6 7 8 9 10 11 12 13 14 15 16 17 18 19 20 21 22 23 24 25 26 27 28 29 30 31 32 33 34 35 36 37 38 39 40 41 42 43 44 45 46 47 48 49 50
000
ASUS45 KCYS 061410
RWRWY

WYOMING REGIONAL WEATHER ROUNDUP
NATIONAL WEATHER SERVICE CHEYENNE WY
700 AM MST FRI MAR 06 2015

NOTE:  "FAIR" INDICATES FEW OR NO CLOUDS BELOW 12,000 FEET
WITH NO SIGNIFICANT WEATHER AND/OR OBSTRUCTIONS TO VISIBILITY.

WYZ001-061500-
YELLOWSTONE NATIONAL PARK

CITY           SKY/WX    TMP DP  RH WIND       PRES   REMARKS
LK YELLOWSTONE   N/A      2  -2  83 CALM      30.37R
W YELLOWSTONE  NOT AVBL

$$
WYZ002>013-054>058-071-098>099-061500-
NORTHERN WYOMING

CITY           SKY/WX    TMP DP  RH WIND       PRES   REMARKS
JACKSON        CLEAR      7   3  85 N9        30.40S WCI  -7
CODY           FAIR      41  10  28 W18G28    30.19S
GREYBULL       FAIR      17  13  84 SW3       30.25S
WORLAND        FAIR      20  15  81 SE5       30.24R WCI  13
SHERIDAN       FAIR      27  14  58 SW3       30.15S
BUFFALO        FAIR      32  13  45 W8        30.16S WCI  25
GILLETTE       FAIR      31  16  54 SW13      30.16R WCI  21
HULETT         CLOUDY    34  19  55 SW10      30.14S WCI  26
NEWCASTLE      FAIR      21  16  79 CALM      30.18S

$$
WYZ014>020-022>026-101>103-061500-
CENTRAL WYOMING

CITY           SKY/WX    TMP DP  RH WIND       PRES   REMARKS
BIG PINEY      FAIR      10   6  84 W3        30.35S
PINEDALE       FAIR      12   5  73 NW10      30.35R WCI  -1
DUBOIS         FAIR      21  10  63 NW15G21   30.29S WCI   8
LANDER         FAIR      15   7  70 SW5       30.24S WCI   8
RIVERTON       FAIR      11   5  77 W6        30.26R WCI   1
CASPER         FAIR      25  15  66 SW10      30.24R WCI  15
DOUGLAS        FAIR      19  12  74 N8        30.23R WCI   9

$$
WYZ021-027>030-104>119-061500-
SOUTHERN WYOMING

CITY           SKY/WX    TMP DP  RH WIND       PRES   REMARKS
EVANSTON       FAIR      21  11  65 S8        30.39S WCI  11
FORT BRIDGER   FAIR      26  12  56 W15       30.39F WCI  14
ROCK SPRINGS   FAIR      24  10  55 W21       30.34S WCI   9
DIXON          FAIR      13   8  81 SE6       30.41S WCI   4
RAWLINS        FAIR      24  12  60 W18G24    30.29S WCI  10
SARATOGA       FAIR      14   9  79 SE6       30.34R WCI   5
LARAMIE        FAIR      25  11  55 W16       30.26R WCI  12
CHEYENNE       FAIR      32  12  43 W8        30.23S WCI  25
TORRINGTON     FAIR      29  18  63 W5        30.21S WCI  24
PINE BLUFFS    FAIR      25  18  74 SW6       30.24S WCI  18

$$


USA.gov is the U.S. government's official web portal to all federal, state and local government web resources and services.